SERVIS 2 DEB, 43394

Orbit data source: Space-Track

SERVIS 2 DEB, 43394 is space debris in SSO originally from a launch on Wed, 02 Jun 2010 UTC launched from the Plesetsk Missile And Space Complex (PKMTR). Debris objects in space refer to the collection of defunct objects orbiting the Earth. Examples of debris include non-operational satellites, rocket bodies, and fragments generated from explosions, collisions, or faulty payload assembly.

Loading next visibility...
Identifier
43394, 2010-023D
Orbit
SSO
Last TLE update
2 days ago
Origin
Manufacturer
MELCO
Mission
Spacecraft
Bus & Motor
Unknown
Mass
Unknown
Launch date (UTC)
2010-06-02 (15 years ago)
Launch vehicle
Unknown
Launch site
Plesetsk Missile And Space Complex (PKMTR)
Object type
Payload
Rocket body
Debris
Shape & HBR
Unknown
Radar Cross Section
Small (<0.1 m²)

Expand to show TLE details & history

TLE from 2 days ago
0 SERVIS 2 DEB
1 43394U 10023D   25185.80108089  .00004387  00000-0  63578-2 0  9997
2 43394 100.5046 187.5174 0040678  82.2278 278.3473 13.55468745 50533
Epoch: 2025-07-04T19:13Z
TLE epoch observation values (Epoch: 2025-07-04T19:13:33.388Z)
Latitude
0.00003°
Longitude
-23.91999°
Altitude
1,050.702 km
Speed
7.329 km/s
True Right ascension
12h 30m 04s
True Declination
0° 00' 00"
Sunlit
Object was in daylight at epoch
Visualization orbit readout
Latitude
46.62939°
Longitude
-32.89432°
Altitude
1,032.825 km
Speed
7.353 km/s
Apparent Right ascension
16h 50m 02s
Apparent Declination
42° 35' 25"
Sunlit
Object is in daylight
Visualization observer readout
Local Sidereal Time
10:50:04
Azimuth
54.818° ENE
Elevation
25.743°
Doppler factor
1
Orbital elements
Apogee altitude
1,079.757 km
Perigee altitude
1,019.328 km
Semi-major axis
7,427.68 km
Eccentricity
0.00407
Inclination
100.5046°
RAAN
187.5174°
Arg. of periapsis
82.2278°
True anomaly
Unknown
Mean anomaly
278.3473°
Eccentric anomaly
Unknown
Mean motion
3.3905 °/min
Orbital period
106.18 mins
BSTAR
0.0063578
Loading maneuver chart data...
Loading SW <> Apogee altitude chart data...
Loading historical data...
Loading historical data...
Loading historical data...
Loading historical data...
Loading historical data...
Loading historical data...
Loading historical data...
Other satellites on launch #23 in the year 2010 (2010-06-02 UTC)

SERVIS 2 DEB Visibility forecast

Observer location: undefined°, undefined°

Span
Click to sort rows by Start time (UTC) header in descending order
Start Az.
Max El. time (UTC)
Max El. Az.
Max El.
End time (UTC)
End Az.
4 mins2025-07-06 22:49:52.158Z55.105° ENE2025-07-06 22:49:52.158Z55.105° ENE23.446°2025-07-06 22:53:52.158Z11.695° NNE
10 mins2025-07-07 00:28:52.158Z185.529° SSW2025-07-07 00:33:52.158Z262.942° W38.723°2025-07-07 00:38:52.158Z331.523° NNW
6 mins2025-07-07 11:38:52.158Z63.222° ENE2025-07-07 11:41:52.158Z94.836° ESE16.225°2025-07-07 11:44:52.158Z125.276° SE
11 mins2025-07-07 13:21:52.158Z10.675° NNE2025-07-07 13:26:52.158Z286.428° WNW43.919°2025-07-07 13:32:52.158Z205.448° SW
|